Location: Mexico
(19.4000°N, 99.1500°W)
Time: 18:01:34
(UTC-06:00)

ISS - Pass Details

Date: 20 July 2019
Orbit: 409 x 418 km, 51.6° (Epoch: 23 July)

Event Time Altitude Azimuth Distance (km) Brightness Sun altitude
Exits shadow 04:33:18 19° 333° (NNW) 1,045 -1.7 -20.9°
Maximum altitude 04:35:29 62° 50° (NE) 459 -3.4 -20.4°
Drops below altitude 10° 04:38:44 10° 133° (SE) 1,460 -0.8 -19.8°
Sets 04:40:49 0° 136° (SE) 2,319 0.2 -19.3°
